• In Portugal
  • List of Countries
  • For 7 days
  • Water Temperature
  • Satellite Maps
  • Weather Map
  • Weather Widgets
  • user-avatar
    Login

    Hourly Weather Karaman

    Today, 22 September, Saturday

    Time Temperature Precipitation Wind Pressure Humidity
    00:00 +21°C° 0 mm 1 mps 672 mmHg 31%
    01:00 +20°C° 0 mm 1 mps 672 mmHg 31%
    02:00 +20°C° 0 mm 1 mps 672 mmHg 31%
    03:00 +19°C° 0 mm 1 mps 672 mmHg 33%
    04:00 +19°C° 0 mm 1 mps 672 mmHg 34%
    05:00 +18°C° 0 mm 1 mps 672 mmHg 35%
    06:00 +20°C° 0 mm 1 mps 672 mmHg 32%
    07:00 +22°C° 0 mm 1 mps 673 mmHg 29%
    08:00 +23°C° 0 mm 2 mps 673 mmHg 26%
    09:00 +25°C° 0 mm 2 mps 674 mmHg 25%
    10:00 +26°C° 0 mm 2 mps 674 mmHg 23%
    11:00 +27°C° 0 mm 2 mps 674 mmHg 22%
    12:00 +28°C° 0 mm 2 mps 674 mmHg 20%
    13:00 +28°C° 0 mm 2 mps 674 mmHg 19%
    14:00 +29°C° 0 mm 3 mps 674 mmHg 18%
    15:00 +29°C° 0 mm 3 mps 674 mmHg 18%
    16:00 +28°C° 0 mm 3 mps 674 mmHg 19%
    17:00 +28°C° 0 mm 3 mps 673 mmHg 19%
    18:00 +26°C° 0 mm 3 mps 673 mmHg 21%
    19:00 +25°C° 0 mm 2 mps 673 mmHg 23%
    20:00 +23°C° 0 mm 2 mps 673 mmHg 24%
    21:00 +22°C° 0 mm 1 mps 673 mmHg 25%
    22:00 +22°C° 0 mm 1 mps 673 mmHg 25%
    23:00 +21°C° 0 mm 1 mps 673 mmHg 26%

    Tomorrow, 23 September, Sunday

    Time Temperature Precipitation Wind Pressure Humidity
    00:00 +21°C° 0 mm 1 mps 673 mmHg 27%
    01:00 +20°C° 0 mm 1 mps 673 mmHg 28%
    02:00 +20°C° 0 mm 1 mps 673 mmHg 28%
    03:00 +19°C° 0 mm 1 mps 672 mmHg 29%
    04:00 +19°C° 0 mm 1 mps 672 mmHg 30%
    05:00 +18°C° 0 mm 2 mps 672 mmHg 31%
    06:00 +19°C° 0 mm 2 mps 673 mmHg 29%
    07:00 +21°C° 0 mm 2 mps 674 mmHg 26%
    08:00 +24°C° 0 mm 2 mps 675 mmHg 23%
    09:00 +25°C° 0 mm 3 mps 675 mmHg 21%
    10:00 +27°C° 0 mm 3 mps 675 mmHg 20%
    11:00 +28°C° 0 mm 3 mps 676 mmHg 18%
    12:00 +28°C° 0 mm 4 mps 676 mmHg 17%
    13:00 +29°C° 0 mm 4 mps 676 mmHg 16%
    14:00 +30°C° 0 mm 4 mps 675 mmHg 15%
    15:00 +29°C° 0 mm 4 mps 675 mmHg 15%
    16:00 +29°C° 0 mm 4 mps 675 mmHg 16%
    17:00 +28°C° 0 mm 4 mps 675 mmHg 17%
    18:00 +27°C° 0 mm 3 mps 675 mmHg 19%
    19:00 +25°C° 0 mm 3 mps 675 mmHg 21%
    20:00 +23°C° 0 mm 2 mps 674 mmHg 23%
    21:00 +21°C° 0 mm 2 mps 674 mmHg 24%
    22:00 +21°C° 0 mm 2 mps 674 mmHg 26%
    23:00 +20°C° 0 mm 2 mps 674 mmHg 27%

    Day after tomorrow, 24 September, Monday

    Time Temperature Precipitation Wind Pressure Humidity
    00:00 +20°C° 0 mm 2 mps 674 mmHg 28%
    01:00 +19°C° 0 mm 2 mps 674 mmHg 29%
    02:00 +18°C° 0 mm 2 mps 674 mmHg 30%
    03:00 +18°C° 0 mm 2 mps 673 mmHg 30%
    04:00 +19°C° 0 mm 1 mps 673 mmHg 31%
    05:00 +18°C° 0 mm 1 mps 673 mmHg 32%
    06:00 +20°C° 0 mm 1 mps 673 mmHg 29%
    07:00 +22°C° 0 mm 1 mps 674 mmHg 25%
    08:00 +24°C° 0 mm 1 mps 675 mmHg 22%
    09:00 +25°C° 0 mm 1 mps 675 mmHg 20%
    10:00 +27°C° 0 mm 1 mps 675 mmHg 18%
    11:00 +28°C° 0 mm 1 mps 675 mmHg 17%
    12:00 +29°C° 0 mm 1 mps 675 mmHg 16%
    13:00 +30°C° 0 mm 1 mps 674 mmHg 14%
    14:00 +30°C° 0 mm 1 mps 674 mmHg 13%
    15:00 +30°C° 0 mm 1 mps 674 mmHg 14%
    16:00 +30°C° 0 mm 1 mps 674 mmHg 15%
    17:00 +29°C° 0 mm 1 mps 673 mmHg 15%
    18:00 +27°C° 0 mm 1 mps 673 mmHg 18%
    19:00 +25°C° 0 mm 1 mps 673 mmHg 21%
    20:00 +23°C° 0 mm 1 mps 672 mmHg 23%
    21:00 +22°C° 0 mm 1 mps 672 mmHg 24%
    22:00 +20°C° 0 mm 0 mps 672 mmHg 26%
    23:00 +19°C° 0 mm 0 mps 672 mmHg 27%

    25 September, Tuesday

    Time Temperature Precipitation Wind Pressure Humidity
    00:00 +19°C° 0 mm 0 mps 671 mmHg 27%
    01:00 +18°C° 0 mm 0 mps 671 mmHg 27%
    02:00 +18°C° 0 mm 0 mps 671 mmHg 28%
    03:00 +17°C° 0 mm 0 mps 671 mmHg 28%
    04:00 +17°C° 0 mm 0 mps 670 mmHg 28%
    05:00 +16°C° 0 mm 0 mps 670 mmHg 28%
    06:00 +19°C° 0 mm 0 mps 671 mmHg 24%
    07:00 +21°C° 0 mm 0 mps 672 mmHg 20%
    08:00 +24°C° 0 mm 0 mps 673 mmHg 17%
    09:00 +27°C° 0 mm 1 mps 673 mmHg 16%
    10:00 +28°C° 0 mm 1 mps 673 mmHg 15%
    11:00 +29°C° 0 mm 2 mps 673 mmHg 14%
    12:00 +30°C° 0 mm 2 mps 673 mmHg 14%
    13:00 +30°C° 0 mm 2 mps 672 mmHg 13%
    14:00 +31°C° 0 mm 2 mps 672 mmHg 13%
    15:00 +30°C° 0 mm 2 mps 672 mmHg 14%
    16:00 +30°C° 0 mm 2 mps 671 mmHg 15%
    17:00 +29°C° 0 mm 2 mps 671 mmHg 16%
    18:00 +27°C° 0 mm 2 mps 671 mmHg 19%
    19:00 +25°C° 0 mm 2 mps 671 mmHg 22%
    20:00 +23°C° 0 mm 1 mps 671 mmHg 25%
    21:00 +23°C° 0 mm 2 mps 671 mmHg 30%
    22:00 +21°C° 0 mm 3 mps 671 mmHg 34%
    23:00 +20°C° 0 mm 4 mps 671 mmHg 38%

    26 September, Wednesday

    Time Temperature Precipitation Wind Pressure Humidity
    00:00 +19°C° 0 mm 4 mps 671 mmHg 47%
    01:00 +19°C° 0 mm 4 mps 670 mmHg 56%
    02:00 +18°C° 0 mm 4 mps 670 mmHg 65%
    03:00 +17°C° 0 mm 4 mps 670 mmHg 68%
    04:00 +16°C° 0 mm 5 mps 670 mmHg 72%
    05:00 +15°C° 0 mm 5 mps 671 mmHg 75%
    06:00 +16°C° 0 mm 5 mps 671 mmHg 73%
    07:00 +16°C° 0 mm 5 mps 671 mmHg 71%
    08:00 +16°C° 0 mm 5 mps 671 mmHg 69%
    09:00 +16°C° 0 mm 5 mps 671 mmHg 65%
    10:00 +17°C° 0 mm 5 mps 672 mmHg 62%
    11:00 +19°C° 0 mm 5 mps 672 mmHg 58%
    12:00 +19°C° 0 mm 6 mps 671 mmHg 58%
    13:00 +19°C° 0 mm 6 mps 671 mmHg 57%
    14:00 +17°C° 0 mm 7 mps 671 mmHg 57%
    15:00 +17°C° 0 mm 7 mps 671 mmHg 58%
    16:00 +16°C° 0 mm 7 mps 671 mmHg 58%
    17:00 +15°C° 0 mm 7 mps 671 mmHg 59%
    18:00 +15°C° 0 mm 6 mps 671 mmHg 60%
    19:00 +14°C° 0 mm 6 mps 671 mmHg 60%
    20:00 +13°C° 0 mm 6 mps 672 mmHg 61%
    21:00 +13°C° 0 mm 5 mps 671 mmHg 63%
    22:00 +12°C° 0 mm 5 mps 671 mmHg 64%
    23:00 +10°C° 0 mm 5 mps 671 mmHg 66%

    27 September, Thursday

    Time Temperature Precipitation Wind Pressure Humidity
    00:00 +11°C° 0 mm 4 mps 671 mmHg 67%
    01:00 +11°C° 0 mm 4 mps 671 mmHg 69%
    02:00 +10°C° 0 mm 4 mps 671 mmHg 71%
    03:00 +10°C° 0 mm 4 mps 671 mmHg 72%
    04:00 +10°C° 0 mm 4 mps 671 mmHg 74%
    05:00 +8°C° 0 mm 4 mps 671 mmHg 76%
    06:00 +10°C° 0 mm 3 mps 671 mmHg 73%
    07:00 +11°C° 0 mm 3 mps 671 mmHg 70%
    08:00 +12°C° 0 mm 3 mps 672 mmHg 67%
    09:00 +13°C° 0 mm 3 mps 672 mmHg 62%
    10:00 +16°C° 0 mm 3 mps 672 mmHg 57%
    11:00 +17°C° 0 mm 3 mps 673 mmHg 51%
    12:00 +19°C° 0 mm 3 mps 673 mmHg 48%
    13:00 +20°C° 0 mm 3 mps 672 mmHg 44%
    14:00 +21°C° 0 mm 3 mps 672 mmHg 40%
    15:00 +21°C° 0 mm 2 mps 672 mmHg 40%
    16:00 +21°C° 0 mm 2 mps 672 mmHg 40%
    17:00 +21°C° 0 mm 2 mps 672 mmHg 40%
    18:00 +19°C° 0 mm 2 mps 672 mmHg 44%
    19:00 +18°C° 0 mm 2 mps 672 mmHg 47%
    20:00 +17°C° 0 mm 2 mps 672 mmHg 51%
    21:00 +17°C° 0 mm 2 mps 672 mmHg 53%
    22:00 +16°C° 0 mm 2 mps 672 mmHg 55%
    23:00 +15°C° 0 mm 2 mps 672 mmHg 57%
    Show more